sat.trackr.live / text

‹ back to catalog

YAOGAN-31 04B

NORAD 47856 · 2021-020C

PAYLOAD ACTIVE UNKNOWN

§ Identity

Operator
Country
PRC
Launch date
2021-03-13
Launch site
JSC
Launch vehicle
Mass (kg)
RCS (m²)

External: N2YO · Heavens-Above · Gunter

§ Orbital elements

Epoch: 2026-09-10T04:29:12.321888Z

Period
107.03 min
Inclination
63.4050°
Eccentricity
0.0182016
Mean motion
13.45452404 rev/d
Perigee alt
953.1 km
Apogee alt
1,225.0 km
Semi-major
7,467.2 km
B*
-4.2026e-5
RAAN
40.3414°
Arg perigee
0.8988°
Mean anomaly
359.2331°
Rev number
26,984

§ Raw data

YAOGAN-31 04B1 47856U 21020C   26253.18694817 -.00000118  00000+0 -42026-4 0  99962 47856  63.4050  40.3414 0182016   0.8988 359.2331 13.45452404269844

JSON: /api/v1/satellites/47856 · /tle

For live sub-satellite position, see the globe view (requires WebGL).

§ Visibility from observer

Set your observer location to see the next 7 days of passes ≥ 10°. The values pass through the URL so the page stays shareable.

No JS? Fill the form by hand. The geolocation button needs JavaScript.